Weather History for Tacoma, WA

Change the Weather History Date:

Friday, November 23, 2012

  Actual Average Record
Temperature  
Mean Temperature 46 °F -  
Max Temperature 50 °F 47 °F 59 °F (1957)
Min Temperature 41 °F 34 °F 3 °F (1985)
Degree Days  
Heating Degree Days 20    
Moisture  
Dew Point 46 °F    
Average Humidity 99    
Maximum Humidity 100    
Minimum Humidity 93    
Precipitation  
Precipitation 0.73 in - - ()
Sea Level Pressure  
Sea Level Pressure 30.09 in    
Wind  
Wind Speed 4 mph (SE)    
Max Wind Speed 13 mph    
Max Gust Speed -    
Visibility 6 miles    
Events Rain    
Averages and records for this station are not official NWS values.
T = Trace of Precipitation, MM = Missing Value Source: NWS Daily Summary

Daily Weather History Graph

Daily Weather History Graph

Search for Another Location

Airport:

Trip Planner

Search our weather history database for the weather conditions in past years. The results will help you decide how hot, cold, wet, or windy it might be!

Date:

Astronomy

Nov. 23, 2012 Rise Set
Actual Time 7:25 AM PST 4:26 PM PST
Civil Twilight 6:51 AM PST 5:00 PM PST
Nautical Twilight 6:14 AM PST 5:38 PM PST
Astronomical Twilight 5:37 AM PST 6:15 PM PST
Moon 1:57 PM PST (11/23) 2:34 AM PST (11/23)
Length of Visible Light 10h 09m
Length of Day
9h 00m
Waxing Gibbous, 80% of the Moon is Illuminated
Nov 23
Waxing Gibbous
Nov 28
Full
Dec 6
Last Quarter
Dec 13
New
Dec 19
First Quarter

Hourly Weather History & Observations

Time (PST) Temp. Windchill Dew Point Humidity Pressure Visibility Wind Dir Wind Speed Gust Speed Precip Events Conditions
12:58 AM 42.3 °F 39.4 °F 41.9 °F 99% 30.23 in 10.0 mi WSW 4.6 mph - 0.05 in Rain Light Rain
1:06 AM 42.8 °F - 42.8 °F 100% 30.20 in 10.0 mi Calm Calm - N/A   Overcast
1:52 AM 42.8 °F - 41.0 °F 93% 30.19 in 10.0 mi West 2.3 mph - N/A Rain Light Rain
1:58 AM 42.1 °F 40.2 °F 41.9 °F 99% 30.22 in 10.0 mi West 3.5 mph - 0.00 in Rain Light Rain
2:20 AM 42.8 °F - 41.0 °F 93% 30.18 in 9.0 mi Calm Calm - N/A   Scattered Clouds
2:58 AM 41.7 °F 38.8 °F 41.5 °F 99% 30.18 in 9.0 mi ESE 4.6 mph - 0.01 in   Mostly Cloudy
2:59 AM 41.0 °F 38.0 °F 41.0 °F 100% 30.16 in 9.0 mi ESE 4.6 mph - N/A Rain Light Rain
3:18 AM 42.8 °F - 41.0 °F 93% 30.14 in 10.0 mi Calm Calm - N/A   Mostly Cloudy
3:24 AM 42.8 °F - 41.0 °F 93% 30.15 in 10.0 mi Calm Calm - N/A Rain Light Rain
3:58 AM 42.1 °F 38.4 °F 41.9 °F 99% 30.17 in 8.0 mi WNW 5.8 mph - 0.02 in Rain Light Rain
4:58 AM 42.3 °F - 42.1 °F 99% 30.14 in 8.0 mi NE 2.3 mph - 0.02 in Rain Light Rain
5:58 AM 43.0 °F 41.3 °F 42.6 °F 99% 30.13 in 10.0 mi NW 3.5 mph - 0.01 in Rain Light Rain
6:58 AM 43.0 °F - 42.6 °F 99% 30.12 in 6.0 mi WNW 2.3 mph - 0.05 in Rain Light Rain
7:58 AM 43.5 °F - 43.3 °F 99% 30.13 in 10.0 mi NNW 2.3 mph - 0.04 in Rain Light Rain
8:28 AM 44.6 °F - 44.6 °F 100% 30.11 in 10.0 mi Calm Calm - N/A Rain Light Rain
8:58 AM 44.2 °F 42.7 °F 44.1 °F 99% 30.13 in 9.0 mi North 3.5 mph - 0.02 in Rain Light Rain
9:18 AM 44.6 °F 43.1 °F 44.6 °F 100% 30.11 in 10.0 mi NNW 3.5 mph - N/A Rain Light Rain
9:53 AM 44.6 °F 42.2 °F 44.6 °F 100% 30.09 in 9.0 mi ESE 4.6 mph - N/A Rain Light Rain
9:54 AM 44.6 °F 42.2 °F 44.6 °F 100% 30.09 in 10.0 mi East 4.6 mph - N/A   Overcast
9:58 AM 44.4 °F - 44.2 °F 99% 30.12 in 10.0 mi East 2.3 mph - 0.04 in   Overcast
10:31 AM 44.6 °F 43.1 °F 44.6 °F 100% 30.12 in 10.0 mi NW 3.5 mph - N/A Rain Light Rain
10:43 AM 44.6 °F 40.7 °F 44.6 °F 100% 30.12 in 6.0 mi NNW 6.9 mph - N/A Rain Rain
10:53 AM 44.6 °F 41.4 °F 44.6 °F 100% 30.10 in 9.0 mi NNE 5.8 mph - N/A Rain Light Rain
10:58 AM 44.8 °F 43.3 °F 44.6 °F 99% 30.12 in 10.0 mi NE 3.5 mph - 0.02 in Rain Light Rain
11:01 AM 44.6 °F 43.1 °F 44.6 °F 100% 30.10 in 10.0 mi ENE 3.5 mph - N/A   Overcast
11:11 AM 44.6 °F - 44.6 °F 100% 30.09 in 10.0 mi NNE 2.3 mph - N/A   Overcast
11:17 AM 44.6 °F - 44.6 °F 100% 30.09 in 10.0 mi Calm Calm - N/A Rain Light Rain
11:37 AM 46.4 °F 43.5 °F 44.6 °F 93% 30.11 in 5.0 mi NW 5.8 mph - N/A Rain Light Rain
11:39 AM 46.4 °F 43.5 °F 44.6 °F 93% 30.10 in 4.0 mi NW 5.8 mph - N/A Rain Light Rain
11:58 AM 45.5 °F - 45.3 °F 99% 30.12 in 4.0 mi Calm Calm - 0.04 in Rain Light Rain
12:18 PM 46.4 °F 42.9 °F 44.6 °F 93% 30.07 in 4.0 mi ESE 6.9 mph - N/A Rain Light Rain
12:58 PM 46.0 °F - 45.7 °F 99% 30.07 in 10.0 mi North 2.3 mph - 0.06 in Rain Light Rain
1:01 PM 46.4 °F - 46.4 °F 100% 30.05 in 10.0 mi North 2.3 mph - N/A   Overcast
1:16 PM 46.4 °F 43.5 °F 46.4 °F 100% 30.06 in 10.0 mi NW 5.8 mph - N/A   Overcast
1:34 PM 46.4 °F 42.4 °F 46.4 °F 100% 30.06 in 10.0 mi NNW 8.1 mph - N/A Rain Light Rain
1:49 PM 46.4 °F 43.5 °F 46.4 °F 100% 30.06 in 2.0 mi North 5.8 mph - N/A Rain Heavy Rain
1:50 PM 46.4 °F 43.5 °F 46.4 °F 100% 30.06 in 2.0 mi North 5.8 mph - N/A Rain Heavy Rain
1:55 PM 46.4 °F 43.5 °F 46.4 °F 100% 30.06 in 2.0 mi North 5.8 mph - N/A Rain Rain
1:56 PM 46.4 °F 43.5 °F 46.4 °F 100% 30.06 in 2.0 mi NNE 5.8 mph - N/A Rain Rain
1:58 PM 46.4 °F 43.5 °F 46.4 °F 100% 30.08 in 2.5 mi North 5.8 mph - 0.09 in Rain Rain
2:03 PM 46.4 °F 45.2 °F 46.4 °F 100% 30.06 in 2.5 mi Variable 3.5 mph - N/A Rain Rain
2:08 PM 46.4 °F - 46.4 °F 100% 30.06 in 3.0 mi Calm Calm - N/A Rain Light Rain
2:13 PM 46.4 °F - 46.4 °F 100% 30.06 in 2.5 mi Calm Calm - N/A Rain Rain
2:18 PM 46.4 °F 44.3 °F 46.4 °F 100% 30.05 in 1.5 mi ENE 4.6 mph - N/A Rain Heavy Rain
2:28 PM 46.4 °F 45.2 °F 46.4 °F 100% 30.04 in 2.5 mi East 3.5 mph - N/A Rain Light Rain
2:33 PM 46.4 °F - 46.4 °F 100% 30.06 in 4.0 mi North 2.3 mph - N/A Rain Light Rain
2:43 PM 46.4 °F - 46.4 °F 100% 30.06 in 1.8 mi WNW 2.3 mph - N/A Rain Heavy Rain
2:48 PM 46.4 °F - 46.4 °F 100% 30.05 in 1.5 mi ENE 1.2 mph - N/A Rain Rain
2:53 PM 46.4 °F 45.2 °F 46.4 °F 100% 30.05 in 2.0 mi East 3.5 mph - N/A Rain Light Rain
2:58 PM 46.4 °F - 46.4 °F 100% 30.07 in 3.0 mi ESE 2.3 mph - 0.15 in Rain Light Rain
3:03 PM 46.4 °F 45.2 °F 46.4 °F 100% 30.05 in 3.0 mi East 3.5 mph - N/A Rain Light Rain
3:13 PM 46.4 °F - 46.4 °F 100% 30.05 in 2.5 mi ESE 1.2 mph - N/A Rain Rain
3:18 PM 46.4 °F - 46.4 °F 100% 30.05 in 2.0 mi SE 2.3 mph - N/A Rain Rain
3:28 PM 46.4 °F 44.3 °F 46.4 °F 100% 30.04 in 2.5 mi SE 4.6 mph - N/A Rain Light Rain
3:33 PM 46.4 °F - 46.4 °F 100% 30.04 in 3.0 mi ESE 2.3 mph - N/A Rain Light Rain
3:38 PM 46.4 °F - 46.4 °F 100% 30.04 in 2.5 mi ESE 2.3 mph - N/A Rain Light Rain
3:43 PM 46.4 °F 45.2 °F 46.4 °F 100% 30.05 in 2.0 mi ESE 3.5 mph - N/A Rain Light Rain
3:48 PM 46.4 °F - 46.4 °F 100% 30.05 in 2.5 mi ESE 2.3 mph - N/A Rain Light Rain
3:53 PM 46.4 °F - 46.4 °F 100% 30.05 in 3.0 mi Calm Calm - N/A Rain Light Rain
3:58 PM 46.9 °F - 46.8 °F 99% 30.07 in 3.0 mi Calm Calm - 0.10 in Rain Light Rain
4:03 PM 46.4 °F - 46.4 °F 100% 30.05 in 2.5 mi Calm Calm - N/A Rain Light Rain
4:13 PM 46.4 °F - 46.4 °F 100% 30.05 in 3.0 mi ESE 1.2 mph - N/A   Light Drizzle
4:16 PM 46.4 °F - 46.4 °F 100% 30.05 in 2.5 mi ESE 2.3 mph - N/A   Overcast
4:21 PM 46.4 °F - 46.4 °F 100% 30.05 in 2.5 mi SE 2.3 mph - N/A   Overcast
4:26 PM 46.4 °F - 46.4 °F 100% 30.04 in 3.0 mi SE 2.3 mph - N/A   Overcast
4:29 PM 46.4 °F 45.2 °F 46.4 °F 100% 30.04 in 3.0 mi SSE 3.5 mph - N/A   Overcast
4:58 PM 46.9 °F - 46.6 °F 99% 30.06 in 8.0 mi SE 2.3 mph - 0.01 in   Overcast
5:58 PM 47.7 °F - 47.5 °F 99% 30.06 in 10.0 mi SSW 5.8 mph - N/A   Overcast
6:08 PM 48.2 °F - 48.2 °F 100% 30.04 in 10.0 mi SSW 10.4 mph - N/A   Overcast
6:33 PM 50.0 °F - 50.0 °F 100% 30.04 in 10.0 mi SSW 12.7 mph - N/A   Overcast
6:58 PM 50.0 °F - 49.8 °F 99% 30.07 in 10.0 mi SSW 11.5 mph - N/A   Overcast
7:08 PM 50.0 °F - 50.0 °F 100% 30.06 in 10.0 mi SSW 12.7 mph - N/A   Overcast
7:26 PM 50.0 °F - 50.0 °F 100% 30.07 in 7.0 mi SW 11.5 mph - N/A   Light Drizzle
7:31 PM 50.0 °F - 50.0 °F 100% 30.07 in 5.0 mi SW 9.2 mph - N/A   Light Drizzle
7:36 PM 50.0 °F - 50.0 °F 100% 30.07 in 4.0 mi SSW 11.5 mph - N/A   Light Drizzle
7:41 PM 50.0 °F - 50.0 °F 100% 30.07 in 4.0 mi SSW 9.2 mph - N/A   Light Drizzle
7:49 PM 50.0 °F - 48.2 °F 94% 30.08 in 5.0 mi SSW 10.4 mph - N/A   Overcast
7:58 PM 49.3 °F - 48.9 °F 99% 30.10 in 7.0 mi SSW 11.5 mph - 0.00 in   Overcast
8:13 PM 50.0 °F - 48.2 °F 94% 30.08 in 10.0 mi SSW 10.4 mph - N/A   Overcast
8:33 PM 50.0 °F - 48.2 °F 94% 30.09 in 10.0 mi SSW 10.4 mph - N/A   Overcast
8:38 PM 50.0 °F - 48.2 °F 94% 30.09 in 10.0 mi SSW 10.4 mph - N/A   Overcast
8:43 PM 50.0 °F - 48.2 °F 94% 30.09 in 10.0 mi SSW 9.2 mph - N/A   Overcast
8:58 PM 48.9 °F - 48.7 °F 99% 30.11 in 10.0 mi SSW 8.1 mph - N/A   Overcast
9:07 PM 48.2 °F - 48.2 °F 100% 30.10 in 10.0 mi SSW 9.2 mph - N/A   Overcast
9:58 PM 48.7 °F - 48.6 °F 99% 30.13 in 10.0 mi SSW 8.1 mph - N/A   Overcast
10:33 PM 48.2 °F - 48.2 °F 100% 30.12 in 10.0 mi SSW 9.2 mph - N/A   Overcast
10:58 PM 48.4 °F - 48.0 °F 99% 30.14 in 10.0 mi SSW 10.4 mph - N/A   Overcast
11:58 PM 47.5 °F - 47.1 °F 99% 30.16 in 10.0 mi SSW 11.5 mph - N/A   Overcast